Wind_Speed
31 33 35 33 35 37 41 46 52 56 58 62 65 70 71 72 76 70 69 71 69 69 78 89 105 113 113 113 116 123 123 123 123 121 119 118 114 107 107 109 102 94 93 78
33 33 32 36 38 38 41 43 47 52 55 57 63 71 66 68 75 68 64 61 62 64 68 72 80 94 104 113 117 117 116 121 130 125 124 123 121 115 110 105 109 104 93 85
36 38 39 41 40 45 45 45 52 53 55 62 68 68 65 64 61 58 60 60 61 63 66 69 73 79 88 98 106 111 115 119 120 125 131 132 130 124 122 116 110 110 112 106
40 41 41 43 50 51 51 55 59 57 59 67 70 62 62 65 56 49 51 53 57 61 65 71 75 81 88 93 100 108 112 116 120 123 123 124 133 134 129 123 124 109 108 107
38 42 44 47 50 58 61 58 61 64 65 73 77 70 60 61 60 54 47 46 50 55 59 61 67 73 81 88 92 99 108 114 118 121 121 119 122 124 132 134 123 123 123 104
41 41 46 51 53 54 61 66 69 69 68 74 74 70 64 59 58 52 50 53 55 58 59 61 63 65 69 75 81 90 98 104 110 116 117 116 110 114 120 124 133 133 122 116
44 45 50 53 52 59 68 72 76 73 69 75 73 64 64 56 59 55 53 54 59 64 62 61 60 59 61 64 68 73 78 85 94 103 108 111 112 110 109 115 117 123 132 130
48 50 51 53 56 64 70 70 76 75 75 74 82 70 66 62 58 52 51 53 57 58 59 58 58 54 54 54 55 58 65 72 75 80 84 92 102 107 108 108 111 117 118 118
48 53 54 52 61 69 70 65 73 75 72 67 70 66 66 64 55 50 51 51 52 51 48 47 47 46 43 42 44 47 52 57 63 69 70 73 79 89 100 105 107 109 116 117
50 50 52 59 64 69 66 66 70 71 73 68 66 64 64 62 48 48 44 42 43 43 43 43 43 44 42 39 37 37 39 44 49 52 60 61 62 68 81 96 101 101 107 113
52 55 57 60 61 62 62 68 72 78 74 71 62 61 61 52 44 43 39 37 41 41 40 40 41 42 42 41 37 34 34 34 36 40 43 46 50 57 69 81 93 100 101 108
53 54 55 57 60 64 70 71 75 75 74 67 63 58 51 42 41 39 40 42 44 44 38 39 40 43 43 40 37 34 30 29 28 29 33 38 44 50 58 70 78 93 97 103
55 55 54 58 64 66 70 74 73 64 71 64 60 56 40 36 39 43 40 39 41 43 40 40 40 42 42 39 39 35 28 25 23 22 24 29 36 44 48 56 64 77 89 100
51 56 56 60 63 64 67 64 65 63 66 62 56 49 35 35 34 38 39 39 40 40 42 40 41 41 42 39 38 35 30 23 18 16 17 21 29 36 44 52 59 69 84 93
54 57 60 64 63 60 70 65 58 60 64 60 56 41 32 31 30 35 37 38 39 41 41 40 41 41 41 38 33 30 27 24 16 10 10 15 22 29 38 45 55 66 79 92
55 56 56 62 55 64 63 61 57 59 61 54 50 39 35 32 32 32 36 34 36 39 41 38 39 40 40 38 34 31 27 19 13 8 6 11 20 28 36 43 54 65 78 88
54 53 50 55 60 61 60 56 53 54 57 53 47 40 34 36 34 35 39 36 34 34 38 39 39 41 40 36 32 31 32 26 21 11 8 15 21 28 35 44 55 65 75 84
51 49 47 53 53 58 53 51 49 58 56 49 45 42 35 34 36 36 38 37 37 35 35 37 37 37 38 36 32 29 26 26 24 22 23 27 32 39 44 50 57 65 73 79
48 46 47 52 49 52 47 48 47 55 50 45 40 41 38 33 32 36 39 40 34 33 35 35 32 32 33 32 33 30 24 18 16 16 18 22 28 36 44 51 58 64 71 78
50 44 47 50 50 46 45 38 45 51 47 43 40 39 40 38 36 34 32 32 34 30 31 31 32 29 26 27 27 26 24 18 10 5 7 16 22 27 34 40 47 54 62 70
48 48 49 53 50 48 46 38 44 44 45 41 39 39 38 40 38 36 35 35 34 31 28 22 24 27 27 24 22 21 22 19 13 6 2 7 14 21 28 35 41 47 54 61
49 49 54 52 50 45 43 39 36 42 43 42 42 38 38 38 40 42 40 37 34 34 30 26 21 21 22 22 20 18 16 14 14 10 3 4 11 16 22 28 34 40 45 52
56 54 54 55 48 40 39 35 32 41 42 45 41 38 37 37 38 42 42 41 37 34 28 28 28 25 20 17 17 20 18 13 10 8 6 2 6 10 15 20 26 32 36 41
55 53 52 48 43 38 38 36 34 34 42 42 39 37 38 37 36 39 41 39 40 40 36 27 25 26 27 25 22 21 20 16 12 9 7 3 3 3 4 8 13 19 25 31
48 46 45 43 40 37 36 30 35 36 42 44 41 40 36 37 39 38 39 38 41 41 40 35 29 27 24 22 23 24 22 22 20 17 15 13 12 13 13 12 13 14 15 16
42 43 39 39 37 38 32 33 35 34 36 43 43 40 39 38 39 39 39 40 40 40 41 36 31 28 25 24 20 21 23 26 26 26 25 25 24 22 20 19 20 19 20 22
Wind_Direction
273 281 284 288 294 296 294 292 291 290 291 293 293 293 294 295 291 290 285 281 275 269 260 257 257 254 252 252 252 250 247 245 245 245 245 239 239 236 234 235 234 231 237 241
272 277 287 292 296 307 302 301 301 298 297 297 300 298 309 303 299 299 292 287 280 272 267 259 252 254 255 253 253 253 252 248 246 245 244 242 241 235 233 233 235 233 233 234
275 274 286 294 297 298 304 301 310 303 305 306 305 313 312 308 304 299 293 288 281 275 270 265 260 255 251 251 252 253 253 252 249 247 245 243 242 240 239 233 235 233 233 234
279 280 292 296 299 303 311 309 311 311 311 313 310 318 317 312 312 305 296 290 283 277 272 267 264 260 254 248 246 246 249 252 251 249 248 245 242 241 238 236 235 232 231 233
278 282 289 296 305 315 311 316 314 317 318 318 317 323 329 319 323 317 309 299 292 286 282 281 275 268 264 259 257 253 248 246 247 248 250 248 245 242 241 236 235 234 236 232
279 285 293 300 308 307 317 317 319 323 322 319 320 324 326 322 324 320 316 311 308 303 300 295 289 280 273 268 263 258 253 251 249 248 249 250 248 244 241 237 235 234 235 234
276 289 293 300 300 307 312 313 317 320 319 318 321 329 327 324 326 323 321 317 311 306 303 300 297 290 286 278 270 265 260 256 253 251 249 249 249 247 243 241 236 234 235 235
281 287 289 294 300 307 310 313 314 317 318 321 327 332 328 328 327 322 319 313 315 318 314 310 304 299 294 288 279 272 265 261 257 253 250 248 246 245 244 240 238 235 233 233
280 286 290 295 304 308 311 315 315 316 317 318 325 328 327 326 324 321 327 323 321 323 325 322 321 316 308 298 285 278 274 264 258 257 254 248 244 241 240 238 236 234 233 232
281 285 286 298 305 307 310 316 316 319 319 316 327 328 327 322 320 325 332 332 333 339 340 332 330 327 322 315 307 297 284 274 265 259 255 253 242 236 235 236 234 232 229 230
279 283 293 300 304 311 314 317 316 318 319 320 330 330 323 319 318 332 335 338 342 348 338 336 333 331 328 325 321 314 304 290 278 266 257 250 240 233 229 229 229 229 227 226
280 285 293 299 302 308 315 317 318 319 318 325 332 330 323 320 326 335 349 352 346 344 340 338 341 339 336 334 327 319 310 301 289 275 261 247 235 232 229 226 224 223 223 223
275 282 293 295 299 306 311 312 314 321 322 329 335 331 329 325 334 342 353 350 343 341 344 347 348 345 343 340 335 331 323 311 298 280 262 247 236 229 228 224 219 217 217 218
278 286 294 294 296 304 311 315 316 325 325 333 338 334 334 327 335 336 346 345 336 340 353 354 353 352 351 346 337 336 333 326 308 287 263 242 232 227 220 215 211 208 210 213
281 289 292 294 300 304 307 315 320 329 331 335 332 335 326 320 329 334 340 345 340 346 350 355 355 357 356 354 355 356 347 337 326 303 264 234 219 213 211 205 203 200 204 209
279 286 291 295 300 307 309 317 324 330 330 335 330 328 327 323 324 330 332 340 345 343 348 355 358 359 1 3 5 13 13 6 350 331 259 209 197 194 193 191 190 191 196 204
279 285 290 293 297 305 311 315 326 329 329 332 331 332 319 319 321 321 329 333 339 343 340 350 359 6 5 4 10 20 22 34 49 58 118 152 162 168 171 170 179 182 193 201
279 283 289 291 297 305 309 316 324 323 326 330 328 333 324 316 314 317 324 327 331 337 345 342 349 357 9 11 14 22 29 34 52 68 99 123 137 145 154 164 174 184 192 200
277 282 286 294 300 305 312 319 323 327 337 329 329 332 332 330 325 321 322 319 328 328 335 338 342 345 358 9 19 22 23 34 40 78 98 120 138 150 159 171 181 189 196 203
272 281 287 296 301 309 309 318 323 326 330 329 332 330 333 335 336 333 329 325 321 314 313 325 335 342 342 355 11 20 26 24 40 48 127 150 159 168 177 186 193 199 205 211
277 283 286 296 302 307 306 321 327 334 335 328 331 330 330 334 335 335 334 335 329 323 311 308 320 329 340 342 348 3 17 19 35 32 183 207 204 199 200 202 205 208 212 216
278 284 286 293 298 304 308 322 328 331 335 331 328 330 330 331 336 338 335 334 331 329 321 308 300 306 316 329 338 343 349 4 16 23 48 218 223 221 221 225 225 225 226 226
276 281 283 288 293 303 306 321 325 334 332 335 332 332 329 330 332 331 330 330 331 330 322 312 298 292 289 297 313 322 333 337 341 353 8 285 209 211 223 230 232 233 235 234
270 277 280 285 292 300 302 317 330 330 338 344 333 335 330 331 331 331 331 330 330 329 323 314 313 313 291 281 276 286 293 305 312 319 309 284 224 221 232 230 231 234 234 236
266 273 277 282 287 296 302 317 318 324 332 340 339 334 329 334 333 331 331 331 331 329 325 319 311 310 315 295 280 273 269 271 274 279 284 280 270 257 260 257 252 248 247 247
258 270 276 277 288 290 303 314 320 322 333 346 337 334 333 334 336 331 334 334 335 333 327 324 316 304 302 308 306 286 277 270 266 267 267 268 271 272 271 272 270 264 267 267
Height
10610 10608 10605 10602 10599 10595 10590 10585 10580 10575 10570 10563 10556 10547 10539 10528 10513 10510 10504 10495 10492 10490 10488 10487 10487 10489 10490 10491 10494 10501 10505 10505 10511 10520 10528 10537 10549 10560 10569 10578 10589 10595 10602 10609
10603 10601 10598 10594 10591 10588 10583 10576 10569 10560 10556 10550 10539 10526 10522 10506 10486 10484 10478 10473 10468 10463 10460 10457 10457 10456 10457 10459 10461 10464 10470 10476 10482 10490 10498 10506 10521 10532 10543 10551 10563 10577 10587 10593
10594 10593 10590 10586 10581 10576 10572 10565 10557 10550 10541 10529 10522 10513 10503 10486 10476 10468 10455 10450 10444 10440 10437 10432 10431 10430 10428 10429 10428 10430 10433 10439 10446 10453 10464 10475 10487 10502 10517 10529 10536 10550 10564 10571
10587 10584 10582 10578 10574 10568 10562 10553 10544 10537 10528 10511 10503 10502 10488 10465 10459 10453 10442 10432 10423 10417 10412 10406 10402 10398 10394 10391 10391 10393 10396 10399 10403 10409 10419 10435 10451 10467 10484 10498 10514 10525 10536 10548
10577 10575 10573 10569 10565 10558 10550 10542 10531 10522 10511 10497 10483 10479 10469 10451 10438 10431 10424 10415 10406 10397 10390 10385 10379 10374 10369 10365 10367 10368 10367 10365 10365 10370 10380 10393 10410 10426 10443 10466 10482 10500 10511 10527
10568 10565 10563 10559 10554 10547 10540 10532 10520 10511 10499 10485 10473 10465 10454 10442 10430 10418 10408 10398 10388 10378 10370 10361 10353 10348 10342 10336 10334 10334 10335 10338 10341 10345 10351 10361 10374 10389 10406 10423 10449 10466 10482 10501
10559 10557 10554 10550 10543 10536 10529 10519 10508 10500 10489 10472 10459 10456 10441 10431 10417 10405 10396 10386 10376 10366 10357 10345 10334 10325 10316 10310 10307 10304 10303 10305 10308 10315 10324 10332 10343 10356 10376 10389 10412 10432 10453 10474
10549 10546 10543 10539 10534 10527 10519 10509 10497 10486 10477 10465 10441 10437 10426 10417 10406 10395 10388 10378 10363 10350 10338 10326 10315 10305 10296 10288 10282 10279 10278 10277 10278 10283 10290 10300 10311 10324 10340 10358 10377 10399 10422 10443
10540 10535 10534 10528 10523 10516 10508 10499 10488 10476 10467 10458 10443 10430 10418 10407 10396 10386 10377 10365 10353 10340 10327 10313 10300 10288 10280 10272 10265 10260 10255 10253 10255 10257 10261 10269 10279 10292 10308 10324 10344 10366 10391 10415
10532 10528 10524 10519 10513 10505 10497 10487 10477 10464 10452 10444 10437 10422 10411 10398 10387 10379 10371 10359 10345 10331 10317 10305 10292 10280 10268 10260 10252 10246 10241 10237 10238 10239 10241 10245 10253 10265 10279 10295 10315 10337 10363 10388
10522 10518 10515 10510 10504 10494 10487 10476 10464 10453 10440 10428 10426 10412 10400 10388 10380 10374 10365 10351 10339 10326 10316 10302 10290 10278 10265 10254 10245 10237 10231 10226 10223 10222 10223 10228 10235 10244 10254 10267 10288 10312 10337 10362
10512 10508 10505 10500 10496 10486 10477 10467 10455 10442 10429 10424 10412 10401 10391 10381 10373 10368 10353 10343 10332 10323 10314 10300 10286 10273 10261 10249 10238 10229 10222 10216 10213 10211 10211 10214 10219 10226 10237 10248 10267 10289 10318 10346
10500 10498 10497 10492 10486 10477 10470 10461 10449 10437 10422 10415 10406 10393 10383 10375 10365 10356 10351 10342 10333 10323 10310 10296 10283 10270 10258 10245 10233 10223 10215 10209 10205 10202 10202 10203 10207 10214 10224 10238 10255 10279 10305 10331
10491 10487 10486 10484 10479 10471 10461 10453 10441 10428 10417 10410 10402 10387 10376 10368 10364 10357 10347 10340 10332 10321 10307 10295 10283 10270 10258 10246 10233 10221 10210 10204 10198 10195 10194 10196 10200 10206 10215 10227 10243 10264 10292 10319
10482 10478 10476 10471 10468 10461 10451 10445 10434 10423 10411 10402 10392 10387 10377 10370 10363 10354 10346 10340 10329 10318 10307 10296 10284 10271 10259 10247 10234 10222 10211 10202 10196 10192 10191 10192 10195 10201 10211 10221 10236 10255 10283 10307
10471 10470 10468 10458 10458 10451 10440 10434 10424 10413 10407 10400 10391 10377 10371 10365 10357 10351 10344 10335 10328 10318 10309 10298 10287 10275 10263 10251 10239 10227 10216 10207 10199 10194 10193 10193 10196 10200 10208 10220 10235 10257 10282 10305
10460 10461 10462 10452 10448 10441 10435 10426 10417 10406 10400 10393 10384 10375 10366 10359 10353 10346 10341 10333 10326 10319 10309 10299 10289 10279 10269 10257 10247 10236 10225 10216 10208 10203 10200 10200 10203 10209 10218 10230 10246 10265 10288 10307
10449 10452 10452 10448 10442 10433 10428 10421 10413 10401 10395 10388 10379 10370 10361 10354 10348 10342 10336 10331 10325 10317 10309 10300 10291 10283 10274 10265 10255 10246 10238 10230 10224 10219 10216 10214 10216 10221 10230 10243 10258 10273 10289 10304
10440 10441 10443 10438 10435 10427 10420 10414 10407 10397 10388 10382 10375 10367 10358 10350 10343 10336 10332 10326 10321 10315 10308 10301 10293 10286 10279 10272 10263 10255 10249 10244 10239 10236 10234 10234 10236 10238 10244 10254 10264 10275 10286 10296
10429 10431 10431 10428 10426 10420 10414 10409 10402 10391 10384 10376 10369 10363 10354 10346 10338 10331 10325 10319 10313 10307 10303 10298 10292 10286 10281 10275 10269 10263 10258 10253 10250 10248 10248 10248 10250 10254 10259 10266 10274 10281 10289 10298
10418 10421 10418 10418 10416 10411 10406 10401 10394 10387 10378 10372 10365 10358 10350 10343 10335 10328 10321 10314 10307 10301 10296 10292 10289 10285 10280 10276 10272 10268 10264 10260 10256 10255 10255 10256 10258 10260 10264 10269 10274 10279 10286 10293
10407 10408 10406 10407 10406 10404 10398 10393 10387 10380 10371 10365 10358 10352 10345 10339 10332 10324 10317 10310 10303 10296 10290 10286 10283 10281 10278 10275 10271 10269 10266 10264 10261 10259 10257 10258 10260 10262 10265 10269 10273 10277 10282 10287
10393 10397 10397 10397 10394 10396 10391 10387 10381 10373 10366 10359 10353 10346 10341 10334 10327 10320 10312 10305 10298 10292 10287 10282 10278 10275 10273 10272 10269 10267 10266 10263 10262 10261 10259 10258 10258 10259 10262 10265 10268 10272 10274 10277
10383 10386 10387 10385 10384 10386 10383 10379 10374 10368 10361 10353 10348 10341 10335 10330 10322 10315 10308 10301 10294 10287 10282 10277 10273 10270 10267 10265 10264 10263 10262 10262 10261 10260 10259 10259 10258 10258 10259 10260 10262 10263 10265 10268
10372 10375 10375 10376 10377 10377 10374 10370 10367 10362 10356 10349 10341 10336 10329 10324 10318 10311 10304 10296 10289 10281 10275 10270 10266 10263 10260 10258 10257 10257 10257 10256 10256 10256 10256 10256 10257 10256 10257 10257 10258 10259 10260 10261
10360 10362 10366 10367 10370 10368 10365 10363 10359 10354 10350 10342 10336 10332 10325 10319 10313 10306 10298 10291 10284 10277 10269 10264 10259 10255 10253 10252 10250 10249 10249 10249 10250 10250 10251 10251 10251 10251 10252 10252 10253 10253 10253 10254